Retour au catalogue

KUIPER-00019

ActifCommunicationsLEO
NORAD 63734·PAYLOAD·🇺🇸 United States

Lancé Apr 28, 2025 depuis Cape Canaveral Space Force Station

Loading…

Prochains Passages (prochaines 24 heures)

TLE

FraisSource: CelesTrak SupGP

Époque: Sep 14, 2026, 19:56 UTC

1 63734C 25088L   26257.83100694  .00004741  00000+0  62065-3 0  2573
2 63734  51.9009 342.9807 0000153 104.2881 246.4166 14.79926154    13

Suivez KUIPER-00019 en temps réel avec AllMySat

Download on the App Store